EW9119 Weather Reports


time (UTC)temp
C
wind
direction
speed
KPH
gust
KPH
rain 1hr
cm
rain 24hr
cm
rain mn
cm
humidity
%
barometer
mb
20260504050017 7 227 0.0 0.0 0.00 0.00 0.00 58 1015.6
20260504044521 7 227 0.0 0.0 0.00 0.00 0.00 57 1015.6
20260504043013 7 227 0.0 0.0 0.00 0.00 0.00 60 1015.4
20260504041510 7 227 0.0 0.0 0.00 0.00 0.00 61 1015.1
20260504040008 8 227 0.0 0.0 0.00 0.00 0.00 61 1015.2
20260504034504 8 227 0.0 0.0 0.00 0.00 0.00 60 1015.3
20260504033128 8 227 0.0 0.0 0.00 0.00 0.00 61 1015.3
20260504031558 8 227 0.0 0.0 0.00 0.00 0.00 63 1015.3
20260504030051 8 227 0.0 0.0 0.00 0.00 0.00 64 1015.2
20260504024547 8 227 0.0 0.0 0.00 0.00 0.00 65 1015.4
20260504023059 8 227 0.0 0.0 0.00 0.00 0.00 65 1015.3
20260504021542 8 227 0.0 0.0 0.00 0.00 0.00 64 1015.1
20260504020040 9 227 0.0 0.0 0.00 0.00 0.00 64 1014.9
20260504014547 10 227 0.0 0.0 0.00 0.00 0.00 63 1014.7
20260504013041 10 227 0.0 0.0 0.00 0.00 0.00 62 1014.5
20260504011529 11 227 0.0 0.0 0.00 0.00 0.00 60 1014.5
20260504010028 11 227 0.0 0.0 0.00 0.00 0.00 57 1014.5
20260504004521 12 227 0.0 0.0 0.00 0.00 0.00 55 1014.4
20260504003026 13 227 0.0 0.0 0.00 0.00 0.00 52 1014.3
20260504001515 13 227 0.0 0.0 0.00 0.00 0.00 51 1014.2
20260504000011 14 11 0.0 0.0 0.00 0.00 0.00 47 1014.1
20260503234520 15 306 0.0 0.0 0.00 0.00 0.00 44 1014.1
20260503233003 15 34 0.0 0.0 0.00 0.00 0.00 42 1014.1
20260503231559 16 19 0.0 0.0 0.00 0.00 0.00 43 1014.1
20260503230100 16 66 0.0 0.0 0.00 0.00 0.00 41 1014.0
20260503224550 16 309 0.0 0.0 0.00 0.00 0.00 37 1014.1
20260503223049 16 93 0.0 0.0 0.00 0.00 0.00 36 1014.2
20260503221543 17 110 0.0 0.0 0.00 0.00 0.00 37 1014.4
20260503220036 17 342 0.0 0.0 0.00 0.00 0.00 31 1014.6
20260503214533 17 264 0.0 0.0 0.00 0.00 0.00 33 1014.8
20260503213027 17 161 0.0 3.2 0.00 0.00 0.00 32 1014.8
20260503211523 17 281 0.0 0.0 0.00 0.00 0.00 33 1014.8
20260503210025 17 292 0.0 0.0 0.00 0.00 0.00 31 1014.8
20260503204514 17 291 0.0 1.6 0.00 0.00 0.00 31 1015.0
20260503203014 17 271 0.0 0.0 0.00 0.00 0.00 32 1015.1
20260503201507 16 335 0.0 0.0 0.00 0.00 0.00 30 1015.4
20260503200006 16 268 0.0 1.6 0.00 0.00 0.00 32 1015.8
20260503194505 16 325 0.0 0.0 0.00 0.00 0.00 31 1015.8
20260503193002 16 294 0.0 0.0 0.00 0.00 0.00 33 1016.1
20260503191629 16 281 0.0 0.0 0.00 0.00 0.00 31 1016.2
20260503190123 16 111 0.0 1.6 0.00 0.00 0.00 31 1016.4
20260503184557 16 123 0.0 0.0 0.00 0.00 0.00 33 1016.6
20260503183100 16 336 0.0 0.0 0.00 0.00 0.00 33 1016.9
20260503181540 16 338 0.0 0.0 0.00 0.00 0.00 35 1017.1
20260503180042 16 334 0.0 1.6 0.00 0.00 0.00 34 1017.2
20260503174534 16 302 0.0 0.0 0.00 0.00 0.00 35 1017.4
20260503173037 16 5 0.0 0.0 0.00 0.00 0.00 37 1017.4
20260503171522 15 351 0.0 1.6 0.00 0.00 0.00 35 1017.6
20260503120103 2 300 0.0 0.0 0.00 0.00 0.00 1 1018.6
20260503081546 2 84 0.0 0.0 0.00 0.00 0.00 1 1015.7
20260503071527 2 84 0.0 0.0 0.00 0.00 0.00 2 1015.0